N0ZMJ-4 Weather Reports


Display with metric or nautical units.
time (UTC)temp
F
wind
direction
speed
MPH
gust
MPH
rain 1hr
in
rain 24hr
in
rain mn
in
humidity
%
barometer
mb
20260905220003 88 160 2.0 5.0 0.00 0.36 0.36 60 1012.1
20260905215503 88 140 2.0 6.0 0.00 0.36 0.36 61 1012.0
20260905215003 88 116 3.0 7.0 0.00 0.36 0.36 60 1012.0
20260905214503 88 178 3.0 7.0 0.00 0.36 0.36 62 1012.1
20260905214003 88 135 2.0 7.0 0.00 0.36 0.36 61 1012.0
20260905213503 88 144 2.0 7.0 0.00 0.36 0.36 60 1012.0
20260905213002 88 168 3.0 7.0 0.00 0.36 0.36 59 1011.9
20260905212503 88 148 2.0 7.0 0.00 0.36 0.36 59 1012.0
20260905212002 88 175 2.0 7.0 0.00 0.36 0.36 59 1011.9
20260905211503 88 118 3.0 7.0 0.00 0.36 0.36 59 1011.9
20260905211002 87 110 2.0 7.0 0.00 0.36 0.36 60 1011.9
20260905210503 87 101 3.0 8.0 0.00 0.36 0.36 59 1012.0
20260905210003 87 119 2.0 8.0 0.00 0.36 0.36 59 1012.0
20260905205503 87 115 3.0 7.0 0.00 0.36 0.36 58 1012.0
20260905205003 88 117 3.0 7.0 0.00 0.36 0.36 58 1011.9
20260905204503 88 159 4.0 8.0 0.00 0.36 0.36 58 1011.9
20260905204002 87 151 3.0 9.0 0.00 0.36 0.36 57 1011.9
20260905203503 88 149 3.0 9.0 0.00 0.36 0.36 57 1011.9
20260905203003 88 117 3.0 8.0 0.00 0.36 0.36 58 1011.8
20260905202503 88 110 3.0 8.0 0.00 0.36 0.36 58 1011.7
20260905202003 88 122 3.0 8.0 0.00 0.36 0.36 58 1011.8
20260905201503 88 171 3.0 11.0 0.00 0.36 0.36 59 1011.8
20260905201003 88 96 5.0 11.0 0.00 0.36 0.36 59 1011.8
20260905200502 87 111 3.0 10.0 0.00 0.36 0.36 60 1011.8
20260905200003 87 101 4.0 10.0 0.00 0.36 0.36 60 1011.6
20260905195502 87 98 5.0 9.0 0.00 0.36 0.36 59 1011.7
20260905195004 87 132 2.0 8.0 0.00 0.36 0.36 61 1011.8
20260905194503 87 134 3.0 12.0 0.00 0.36 0.36 63 1011.9
20260905194003 86 98 2.0 12.0 0.00 0.36 0.36 63 1011.9
20260905193503 86 85 7.0 10.0 0.00 0.36 0.36 62 1012.0
20260905193003 85 96 5.0 9.0 0.00 0.36 0.36 64 1012.0
20260905192503 85 93 7.0 9.0 0.00 0.36 0.36 64 1012.0
20260905192003 85 93 6.0 9.0 0.00 0.36 0.36 63 1012.0
20260905191503 85 179 2.0 10.0 0.00 0.36 0.36 64 1011.9
20260905191003 85 104 4.0 12.0 0.00 0.36 0.36 64 1012.0
20260905190503 85 92 7.0 12.0 0.00 0.36 0.36 63 1012.0
20260905190004 85 96 5.0 7.0 0.00 0.36 0.36 65 1011.9
20260905185503 85 102 2.0 8.0 0.00 0.36 0.36 64 1012.0
20260905185003 84 110 3.0 9.0 0.00 0.36 0.36 65 1012.0
20260905184503 84 105 4.0 9.0 0.00 0.36 0.36 65 1012.2
20260905184003 84 99 4.0 11.0 0.00 0.36 0.36 65 1012.2
20260905183503 84 85 7.0 13.0 0.00 0.36 0.36 64 1012.4
20260905183003 84 118 5.0 14.0 0.00 0.36 0.36 64 1012.4
20260905182503 84 100 5.0 14.0 0.00 0.36 0.36 64 1012.4
20260905182003 84 102 4.0 11.0 0.00 0.36 0.36 65 1012.5
20260905181503 84 101 5.0 13.0 0.00 0.36 0.36 65 1012.5
20260905181003 84 95 7.0 13.0 0.00 0.36 0.36 66 1012.7
20260905180503 84 164 3.0 9.0 0.00 0.36 0.36 67 1012.6
20260905180003 83 111 4.0 8.0 0.00 0.36 0.36 67 1012.7
20260905175503 83 144 3.0 10.0 0.00 0.36 0.36 67 1012.6
20260905175002 83 146 3.0 10.0 0.00 0.36 0.36 67 1012.7
20260905174503 83 133 3.0 11.0 0.00 0.36 0.36 67 1012.7
20260905174003 82 105 3.0 11.0 0.00 0.36 0.36 68 1012.6
20260905173503 82 134 2.0 10.0 0.00 0.36 0.36 70 1012.7
20260905173003 82 94 4.0 10.0 0.00 0.36 0.36 71 1012.6
20260905172503 81 156 3.0 10.0 0.00 0.36 0.36 71 1012.5
20260905172003 81 145 4.0 12.0 0.00 0.36 0.36 71 1012.5
20260905171503 81 137 5.0 12.0 0.00 0.36 0.36 70 1012.5
20260905171003 81 122 3.0 10.0 0.00 0.36 0.36 71 1012.5
20260905170503 81 138 2.0 10.0 0.00 0.36 0.36 71 1012.5
20260905170003 81 177 2.0 10.0 0.00 0.36 0.36 74 1012.4
20260905165503 80 120 3.0 9.0 0.00 0.36 0.36 73 1012.4
20260905165003 80 137 3.0 9.0 0.00 0.36 0.36 73 1012.6
20260905164503 80 139 2.0 9.0 0.00 0.36 0.36 74 1012.6
20260905164003 79 128 3.0 11.0 0.00 0.36 0.36 75 1012.6
20260905163503 79 119 3.0 11.0 0.00 0.36 0.36 75 1012.7
20260905163003 78 110 5.0 11.0 0.00 0.36 0.36 76 1012.8
20260905162502 78 114 4.0 11.0 0.00 0.36 0.36 77 1012.9
20260905162003 78 138 3.0 10.0 0.00 0.36 0.36 78 1012.9
20260905161503 77 93 6.0 10.0 0.00 0.36 0.36 78 1012.9
20260905161003 77 98 4.0 7.0 0.00 0.36 0.36 78 1012.8
20260905160503 77 120 3.0 8.0 0.00 0.36 0.36 79 1012.7
20260905160003 77 117 3.0 8.0 0.00 0.36 0.36 80 1012.7
20260905155503 77 148 3.0 8.0 0.00 0.36 0.36 81 1012.6
20260905155003 76 179 3.0 8.0 0.00 0.36 0.36 82 1012.5
20260905154503 76 129 3.0 7.0 0.00 0.36 0.36 82 1012.6
20260905154003 75 114 2.0 7.0 0.00 0.36 0.36 83 1012.8
20260905153503 74 101 3.0 8.0 0.00 0.36 0.36 84 1012.8
20260905153002 74 87 5.0 8.0 0.00 0.36 0.36 83 1012.6
20260905152503 74 84 3.0 8.0 0.00 0.36 0.36 84 1012.8
20260905152002 74 91 4.0 8.0 0.00 0.36 0.36 84 1012.8
20260905151503 73 89 5.0 9.0 0.00 0.36 0.36 83 1012.8
20260905151003 73 93 5.0 9.0 0.00 0.36 0.36 83 1012.3
20260905150503 73 87 7.0 9.0 0.00 0.36 0.36 83 1012.3
20260905150003 73 91 4.0 8.0 0.00 0.36 0.36 83 1012.4
20260905145503 73 94 4.0 8.0 0.00 0.36 0.36 83 1012.3
20260905145003 73 93 4.0 7.0 0.00 0.36 0.36 83 1012.4
20260905144503 73 88 2.0 6.0 0.00 0.36 0.36 83 1012.6
20260905144003 73 93 4.0 8.0 0.00 0.36 0.36 83 1012.6
20260905143503 73 95 3.0 8.0 0.00 0.36 0.36 82 1012.6
20260905143003 73 76 2.0 7.0 0.00 0.36 0.36 82 1012.5
20260905142503 73 88 4.0 8.0 0.00 0.36 0.36 81 1012.3
20260905142003 73 91 3.0 9.0 0.00 0.36 0.36 82 1012.4
20260905141503 73 111 3.0 9.0 0.00 0.36 0.36 81 1012.4
20260905141003 73 91 4.0 10.0 0.00 0.36 0.36 82 1012.4
20260905140502 72 115 4.0 11.0 0.00 0.36 0.36 83 1012.5
20260905140004 72 125 4.0 16.0 0.00 0.36 0.36 85 1012.4
20260905135503 71 98 4.0 16.0 0.00 0.36 0.36 86 1012.1
20260905135003 70 178 4.0 16.0 0.00 0.36 0.36 89 1011.5
20260905134503 70 169 3.0 10.0 0.00 0.36 0.36 89 1012.2
20260905134003 70 157 2.0 9.0 0.00 0.36 0.36 91 1013.1
20260905133503 70 77 2.0 9.0 0.00 0.36 0.36 90 1013.0
20260905133003 70 56 1.0 5.0 0.00 0.36 0.36 90 1013.3
20260905132503 70 126 1.0 12.0 0.00 0.36 0.36 90 1013.5
20260905132002 70 156 2.0 12.0 0.00 0.36 0.36 90 1013.7
20260905131503 70 145 3.0 9.0 0.00 0.36 0.36 90 1013.9
20260905131002 70 184 3.0 9.0 0.00 0.36 0.36 90 1014.2
20260905130503 70 189 2.0 12.0 0.00 0.36 0.36 91 1014.3
20260905130003 69 160 4.0 12.0 0.00 0.36 0.36 92 1014.4
20260905125503 69 159 2.0 10.0 0.00 0.36 0.36 93 1014.3
20260905125003 69 175 2.0 7.0 0.00 0.36 0.36 94 1014.3
20260905124503 69 179 3.0 7.0 0.00 0.36 0.36 94 1014.5
20260905124003 69 159 2.0 6.0 0.00 0.36 0.36 95 1014.4
20260905123503 69 173 1.0 5.0 0.00 0.36 0.36 95 1014.3
20260905123003 69 90 1.0 5.0 0.00 0.36 0.36 95 1014.2
20260905122502 69 115 1.0 6.0 0.00 0.36 0.36 96 1014.0
20260905122003 69 96 2.0 7.0 0.00 0.36 0.36 95 1014.1
20260905121502 70 99 3.0 7.0 0.00 0.36 0.36 94 1014.3
20260905121003 70 132 1.0 11.0 0.00 0.36 0.36 95 1014.4
20260905120503 69 104 4.0 11.0 0.00 0.36 0.36 95 1014.4
20260905120003 69 102 5.0 10.0 0.00 0.36 0.36 98 1014.1
20260905115503 69 123 1.0 4.0 0.22 0.35 0.35 100 1015.0
20260905115003 69 174 1.0 4.0 0.22 0.35 0.35 100 1015.3
20260905114503 69 162 1.0 4.0 0.21 0.34 0.34 100 1015.3
20260905114003 70 168 1.0 5.0 0.19 0.32 0.32 100 1015.3
20260905113503 70 160 1.0 5.0 0.16 0.29 0.29 100 1015.3
20260905113004 71 181 2.0 4.0 0.14 0.27 0.27 100 1015.5
20260905112503 71 235 0.0 6.0 0.12 0.25 0.25 100 1015.7
20260905112002 71 244 2.0 6.0 0.09 0.22 0.22 100 1015.7
20260905111503 72 228 3.0 5.0 0.07 0.20 0.20 100 1015.8
20260905111003 72 171 1.0 4.0 0.04 0.17 0.17 100 1015.7
20260905110503 72 187 2.0 7.0 0.02 0.15 0.15 100 1015.7
20260905110003 72 228 3.0 7.0 0.13 0.13 0.13 100 1015.7
20260905105503 73 168 1.0 7.0 0.10 0.10 0.10 100 1015.4
20260905105003 73 207 2.0 11.0 0.09 0.09 0.09 100 1015.2
20260905104503 73 228 4.0 11.0 0.08 0.08 0.08 100 1014.8
20260905104003 73 195 2.0 10.0 0.07 0.07 0.07 100 1014.5
20260905103502 73 204 4.0 17.0 0.06 0.06 0.06 100 1014.3
20260905103003 73 223 6.0 17.0 0.06 0.06 0.06 100 1014.0
20260905102502 73 215 4.0 12.0 0.04 0.04 0.04 100 1014.0
20260905102003 72 204 2.0 5.0 0.02 0.02 0.02 100 1013.8
20260905101503 72 183 1.0 4.0 0.00 0.00 0.00 100 1013.7
20260905101003 72 132 1.0 4.0 0.00 0.00 0.00 100 1013.7
20260905100503 72 99 1.0 4.0 0.00 0.00 0.00 100 1013.8
20260905100003 72 99 2.0 6.0 0.00 0.00 0.00 100 1013.8
20260905095503 72 99 1.0 8.0 0.00 0.00 0.00 100 1013.5
20260905095003 72 100 3.0 8.0 0.00 0.00 0.00 100 1013.2
20260905094503 73 97 4.0 6.0 0.00 0.00 0.00 100 1012.7
20260905094002 73 170 1.0 8.0 0.00 0.00 0.00 100 1012.1
20260905093503 73 107 3.0 8.0 0.00 0.00 0.00 100 1011.8
20260905093002 73 110 3.0 8.0 0.00 0.00 0.00 100 1011.8
20260905092503 73 146 2.0 7.0 0.00 0.00 0.00 100 1012.4
20260905092002 73 100 4.0 9.0 0.00 0.00 0.00 100 1012.8
20260905091503 73 100 3.0 9.0 0.00 0.00 0.00 100 1012.9
20260905091003 73 104 4.0 7.0 0.00 0.00 0.00 100 1012.8
20260905090503 73 106 3.0 7.0 0.00 0.00 0.00 100 1013.0
20260905090003 73 89 4.0 7.0 0.00 0.00 0.00 100 1013.0
20260905085503 73 96 4.0 7.0 0.00 0.00 0.00 100 1013.0
20260905085003 74 104 4.0 6.0 0.00 0.00 0.00 100 1012.9
20260905084503 74 103 4.0 6.0 0.00 0.00 0.00 100 1012.9
20260905084003 74 103 1.0 4.0 0.00 0.00 0.00 100 1013.1
20260905083503 73 103 3.0 4.0 0.00 0.00 0.00 100 1013.2
20260905083003 73 103 2.0 6.0 0.00 0.00 0.00 100 1013.3
20260905082503 73 103 2.0 6.0 0.00 0.00 0.00 100 1012.8
20260905082003 73 103 2.0 5.0 0.00 0.00 0.00 100 1012.8
20260905081502 73 104 0.0 1.0 0.00 0.00 0.00 100 1012.8
20260905081003 73 103 0.0 3.0 0.00 0.00 0.00 100 1012.9
20260905080503 73 103 0.0 7.0 0.00 0.00 0.00 100 1012.9
20260905080003 73 103 2.0 7.0 0.00 0.00 0.00 100 1012.5
20260905075503 73 96 4.0 9.0 0.00 0.00 0.00 100 1012.2
20260905075003 73 96 5.0 9.0 0.00 0.00 0.00 100 1012.2
20260905074503 73 98 4.0 8.0 0.00 0.00 0.00 100 1012.5
20260905074003 73 92 4.0 8.0 0.00 0.00 0.00 100 1012.7
20260905073503 72 74 3.0 8.0 0.00 0.00 0.00 100 1012.9
20260905073003 72 102 4.0 8.0 0.00 0.00 0.00 100 1012.7
20260905072503 72 93 4.0 7.0 0.00 0.00 0.00 100 1012.8
20260905072003 72 90 4.0 7.0 0.00 0.00 0.00 100 1012.7
20260905071503 72 100 5.0 7.0 0.00 0.00 0.00 100 1012.8
20260905071003 71 99 4.0 7.0 0.00 0.00 0.00 100 1012.9
20260905070503 71 61 2.0 5.0 0.00 0.00 0.00 100 1012.9
20260905070004 71 61 1.0 5.0 0.00 0.00 0.00 100 1013.1
20260905065503 71 101 1.0 3.0 0.00 0.00 0.00 100 1013.2
20260905065003 71 101 1.0 4.0 0.00 0.00 0.00 100 1013.3
20260905064503 71 101 1.0 4.0 0.00 0.00 0.00 100 1013.3
20260905064002 70 101 1.0 3.0 0.00 0.00 0.00 100 1013.3
20260905063503 70 101 2.0 3.0 0.00 0.00 0.00 100 1013.2
20260905063003 71 101 1.0 2.0 0.00 0.00 0.00 100 1013.4
20260905062503 71 101 0.0 2.0 0.00 0.00 0.00 100 1013.4
20260905062003 71 101 0.0 2.0 0.00 0.00 0.00 100 1013.3
20260905061503 71 101 0.0 2.0 0.00 0.00 0.00 100 1013.1
20260905061003 71 101 0.0 2.0 0.00 0.00 0.00 100 1013.3
20260905060503 71 101 1.0 4.0 0.00 0.00 0.00 100 1013.2
20260905060003 71 101 1.0 4.0 0.00 0.00 0.00 100 1013.2
20260905055503 71 101 2.0 4.0 0.00 0.00 0.00 100 1013.2
20260905055003 71 101 0.0 0.0 0.00 0.00 0.00 100 1013.2
20260905054503 71 101 0.0 0.0 0.00 0.00 0.00 100 1013.2
20260905054003 71 101 0.0 0.0 0.00 0.00 0.00 100 1013.2
20260905053502 71 101 0.0 0.0 0.00 0.00 0.00 100 1013.2
20260905053003 71 101 0.0 0.0 0.00 0.00 0.00 100 1013.1
20260905052503 71 101 0.0 0.0 0.00 0.00 0.00 100 1013.1
20260905052003 71 101 0.0 0.0 0.00 0.00 0.00 100 1013.0
20260905051503 72 101 0.0 0.0 0.00 0.00 0.00 100 1012.9
20260905051003 72 101 0.0 0.0 0.00 0.00 0.00 99 1012.8
20260905050503 72 101 0.0 0.0 0.00 0.00 0.00 99 1012.8
20260905050002 72 101 0.0 0.0 0.00 0.00 0.00 99 1013.0
20260905045503 72 101 0.0 1.0 0.00 0.00 0.00 99 1012.8
20260905045002 72 101 0.0 4.0 0.00 0.00 0.00 98 1012.9
20260905044503 73 101 1.0 4.0 0.00 0.00 0.00 98 1012.8
20260905044003 73 101 1.0 3.0 0.00 0.00 0.00 98 1012.7
20260905043503 73 101 1.0 2.0 0.00 0.00 0.00 98 1012.7
20260905043003 73 101 0.0 1.0 0.00 0.00 0.00 98 1012.7
20260905042503 73 101 0.0 2.0 0.00 0.00 0.00 97 1012.7
20260905042003 73 101 1.0 2.0 0.00 0.00 0.00 97 1012.7
20260905041503 73 101 0.0 2.0 0.00 0.00 0.00 97 1012.7
20260905041003 73 101 1.0 4.0 0.00 0.00 0.00 97 1012.7
20260905040502 73 101 1.0 4.0 0.00 0.00 0.00 97 1012.7
20260905040003 73 101 3.0 5.0 0.00 0.00 0.00 96 1012.8
20260905035502 73 101 3.0 7.0 0.00 0.00 0.00 96 1012.8
20260905035003 74 101 3.0 7.0 0.00 0.00 0.00 96 1012.8
20260905034502 74 110 3.0 6.0 0.00 0.00 0.00 96 1012.8
20260905034003 74 97 3.0 6.0 0.00 0.00 0.00 96 1012.9
20260905033503 74 102 3.0 6.0 0.00 0.00 0.00 96 1013.0
20260905033003 74 102 2.0 7.0 0.00 0.00 0.00 96 1012.9
20260905032503 74 102 3.0 7.0 0.00 0.00 0.00 96 1012.9
20260905032003 74 101 3.0 6.0 0.00 0.00 0.00 95 1012.9
20260905031503 74 87 2.0 5.0 0.00 0.00 0.00 95 1012.8
20260905031003 74 87 2.0 5.0 0.00 0.00 0.00 95 1012.8
20260905030503 75 61 3.0 5.0 0.00 0.00 0.00 94 1012.7
20260905030003 75 98 2.0 5.0 0.00 0.00 0.00 94 1012.7
20260905025503 75 104 3.0 7.0 0.00 0.00 0.00 94 1012.6
20260905025002 75 103 4.0 8.0 0.00 0.00 0.00 94 1012.5
20260905024503 75 96 4.0 8.0 0.00 0.00 0.00 93 1012.5
20260905024003 75 89 1.0 4.0 0.00 0.00 0.00 92 1012.6
20260905023503 75 89 1.0 4.0 0.00 0.00 0.00 92 1012.5
20260905023003 76 74 2.0 5.0 0.00 0.00 0.00 92 1012.5
20260905022503 76 47 2.0 5.0 0.00 0.00 0.00 91 1012.4
20260905022003 76 81 2.0 5.0 0.00 0.00 0.00 90 1012.3
20260905021503 76 50 3.0 5.0 0.00 0.00 0.00 89 1012.2
20260905021003 76 44 1.0 5.0 0.00 0.00 0.00 89 1012.2
20260905020503 77 134 2.0 5.0 0.00 0.00 0.00 88 1012.2
20260905020003 77 48 1.0 3.0 0.00 0.00 0.00 87 1012.1
20260905015502 78 48 0.0 5.0 0.00 0.00 0.00 86 1012.1
20260905015003 78 48 1.0 6.0 0.00 0.00 0.00 86 1012.0
20260905014502 78 53 3.0 6.0 0.00 0.00 0.00 85 1011.8
20260905014003 79 69 2.0 6.0 0.00 0.00 0.00 84 1011.8
20260905013503 79 115 2.0 7.0 0.00 0.00 0.00 83 1011.8
20260905013003 79 115 3.0 8.0 0.00 0.00 0.00 83 1011.7
20260905012502 80 100 3.0 8.0 0.00 0.00 0.00 82 1011.6
20260905012003 80 113 3.0 7.0 0.00 0.00 0.00 81 1011.6
20260905011503 80 106 2.0 9.0 0.00 0.00 0.00 81 1011.6
20260905011003 81 94 3.0 9.0 0.00 0.00 0.00 80 1011.6
20260905010503 81 98 4.0 9.0 0.00 0.00 0.00 79 1011.5
20260905010003 81 90 5.0 9.0 0.00 0.00 0.00 79 1011.4
20260905005503 82 95 6.0 9.0 0.00 0.00 0.00 78 1011.5
20260905005003 82 98 6.0 9.0 0.00 0.00 0.00 77 1011.4
20260905004503 82 98 4.0 8.0 0.00 0.00 0.00 77 1011.4
20260905004002 83 92 5.0 8.0 0.00 0.00 0.00 76 1011.4
20260905003503 83 90 5.0 10.0 0.00 0.00 0.00 75 1011.5
20260905003002 83 100 4.0 10.0 0.00 0.00 0.00 74 1011.5
20260905002503 83 91 5.0 8.0 0.00 0.00 0.00 73 1011.3
20260905002003 84 94 5.0 9.0 0.00 0.00 0.00 72 1011.3
20260905001503 84 89 5.0 9.0 0.00 0.00 0.00 71 1011.3
20260905001003 84 100 5.0 8.0 0.00 0.00 0.00 70 1011.2
20260905000503 85 100 4.0 9.0 0.00 0.00 0.00 69 1011.2
20260905000003 85 95 5.0 10.0 0.00 0.00 0.00 68 1011.1
20260904235503 85 90 6.0 10.0 0.00 0.00 0.00 67 1011.1
20260904235003 85 92 5.0 9.0 0.00 0.00 0.00 67 1011.2
20260904234503 86 98 6.0 10.0 0.00 0.00 0.00 65 1011.2
20260904234003 86 92 6.0 10.0 0.00 0.00 0.00 64 1011.3
20260904233503 86 96 6.0 9.0 0.00 0.00 0.00 64 1011.3
20260904233003 86 104 6.0 10.0 0.00 0.00 0.00 64 1011.4
20260904232503 86 85 6.0 11.0 0.00 0.00 0.00 63 1011.3
20260904232003 86 92 6.0 12.0 0.00 0.00 0.00 64 1011.3
20260904231502 87 105 7.0 12.0 0.00 0.00 0.00 63 1011.2
20260904231003 87 100 6.0 11.0 0.00 0.00 0.00 62 1011.1
20260904230503 87 88 5.0 12.0 0.00 0.00 0.00 61 1011.2
20260904230003 87 97 7.0 12.0 0.00 0.00 0.00 60 1011.0
20260904225503 87 100 6.0 11.0 0.00 0.00 0.00 61 1011.1
20260904225003 88 95 6.0 9.0 0.00 0.00 0.00 61 1011.2
20260904224503 88 93 5.0 12.0 0.00 0.00 0.00 60 1011.3
20260904224003 88 81 5.0 13.0 0.00 0.00 0.00 59 1011.2
20260904223503 88 94 7.0 13.0 0.00 0.00 0.00 59 1011.1
20260904223003 88 95 8.0 12.0 0.00 0.00 0.00 58 1011.2
20260904222503 88 90 7.0 11.0 0.00 0.00 0.00 57 1011.3
20260904222003 88 98 8.0 11.0 0.00 0.00 0.00 57 1011.3
20260904221503 89 99 7.0 12.0 0.00 0.00 0.00 56 1011.4
20260904221003 89 96 8.0 12.0 0.00 0.00 0.00 56 1011.4
20260904220503 89 79 4.0 12.0 0.00 0.00 0.00 56 1011.5